Weather in Grand Forks

United States     47°55′24″N   97°01′55″W
temp.,
°C
wind,
m/s
gust,
m/s
humid.,
%
clouds,
%
prec.,
mm/h
press.,
hPa
HPBL,
m
16 may, sun
sun1601:00+15ese345674 0.0 101654
04:00+13s3116089 0.0 1015279
07:00+14s514666 0.0 1014371
10:00+21ssw694381 1.3 1015951
13:00+26sw793087 1.3 10133316
16:00+25ssw8103298 0.0 10122578
19:00+25wsw6934100 0.1 10111056
22:00+20sw512486 0.0 1013214
17 may, mon
mon1701:00+17w345652 0.0 101452
04:00+15wsw34578 0.0 101551
07:00+15sw34655 0.0 1016114
10:00+22sw34448 0.0 1017676
13:00+26ssw68315 0.0 10162156
16:00+27s79281 0.0 10152527
19:00+26s79325 0.0 10142165
22:00+20s513470 0.0 1015313
18 may, tue
tue1801:00+19s613570 0.0 1015375
04:00+17s615640 0.0 1015420
07:00+16s614700 0.0 1016517
10:00+21s710530 0.0 10151167
13:00+25s8104215 0.0 10132030
16:00+27sse910340 0.0 10112401
19:00+25sse91043100 0.0 10102316
22:00+19s7136611 0.0 1011608
19 may, wed
wed1901:00+17sse714750 0.0 1011605
04:00+15sse512870 0.0 1011448
07:00+15sse611874 0.0 1011399
10:00+21s686212 0.0 1011763
13:00+26s674792 0.0 10101555
16:00+27s6742100 0.0 10082161
19:00+23s6958100 0.1 1009766
22:00+21sse51068100 0.0 1009362
20 may, thu
thu2001:00+19sse51177100 1.1 1009330
04:00+17sse41092100 5.4 1009335
07:00+17se2398100 10.0 1010153
10:00+18ese2489100 0.6 1010358
13:00+21w347498 4.4 1009484
16:00+20nnw667684 1.1 1010560
19:00+12nnw81083100 3.1 1013488
22:00+8nnw71087100 0.0 1017440